,,,PA_Meas_PMT16A,,PR_Meas_QMR101_102,,RH_Meas_QMH101,,SR_Meas_QMS101,,TA_Meas_QMH101,,GenWind,,GenWind,
date,time,status,PA,status,PR,status,RH,status,SR,status,TA,status,DirAvg,status,SpdAvg,
2010-05-07, 00:00:04,VALID,1006.87,VALID,0,VALID,101.842,VALID,0.105969,VALID,25.2922,VALID,330,VALID,0.509766,
2010-05-07, 00:01:04,VALID,1006.88,VALID,0,VALID,101.827,VALID,0,VALID,25.2708,VALID,281,VALID,0.374609,
2010-05-07, 00:02:04,VALID,1006.89,VALID,0,VALID,101.789,VALID,0,VALID,25.3117,VALID,280,VALID,0.0121094,
2010-05-07, 00:03:04,VALID,1006.9,VALID,0,VALID,101.834,VALID,0,VALID,25.3117,VALID,291,VALID,0.278125,
2010-05-07, 00:04:04,VALID,1006.92,VALID,0,VALID,101.834,VALID,0,VALID,25.3117,VALID,294,VALID,0.303125,
2010-05-07, 00:05:04,VALID,1006.92,VALID,0,VALID,101.85,VALID,0,VALID,25.2903,VALID,294,VALID,0,
2010-05-07, 00:06:04,VALID,1006.89,VALID,0,VALID,101.834,VALID,0,VALID,25.2922,VALID,294,VALID,0,
2010-05-07, 00:07:04,VALID,1006.87,VALID,0,VALID,101.842,VALID,0,VALID,25.2922,VALID,294,VALID,0,
2010-05-07, 00:08:04,VALID,1006.86,VALID,0,VALID,101.842,VALID,0,VALID,25.2922,VALID,294,VALID,0,
2010-05-07, 00:09:04,VALID,1006.82,VALID,0,VALID,101.827,VALID,0.105969,VALID,25.2922,VALID,294,VALID,0,
2010-05-07, 00:10:04,VALID,1006.82,VALID,0,VALID,101.796,VALID,0,VALID,25.3117,VALID,294,VALID,0.0726563,
2010-05-07, 00:11:04,VALID,1006.78,VALID,0,VALID,101.796,VALID,0,VALID,25.3312,VALID,211,VALID,0,
2010-05-07, 00:12:04,VALID,1006.79,VALID,0,VALID,101.789,VALID,0,VALID,25.3117,VALID,211,VALID,0,
2010-05-07, 00:13:04,VALID,1006.78,VALID,0,VALID,101.773,VALID,0,VALID,25.3312,VALID,146,VALID,0,
2010-05-07, 00:14:04,VALID,1006.78,VALID,0,VALID,101.804,VALID,0,VALID,25.3312,VALID,106,VALID,0.598047,
2010-05-07, 00:15:04,VALID,1006.79,VALID,0,VALID,101.773,VALID,0.105969,VALID,25.3507,VALID,61,VALID,0.548437,
2010-05-07, 00:16:04,VALID,1006.77,VALID,0,VALID,101.773,VALID,0,VALID,25.3507,VALID,58,VALID,0.467969,
2010-05-07, 00:17:04,VALID,1006.76,VALID,0,VALID,101.789,VALID,0,VALID,25.3507,VALID,58,VALID,0.225,
2010-05-07, 00:18:04,VALID,1006.74,VALID,0,VALID,101.811,VALID,0,VALID,25.3293,VALID,51,VALID,0.439453,
2010-05-07, 00:19:04,VALID,1006.74,VALID,0,VALID,101.804,VALID,0,VALID,25.3507,VALID,51,VALID,0.0832031,
2010-05-07, 00:20:04,VALID,1006.71,VALID,0,VALID,101.804,VALID,0,VALID,25.3507,VALID,51,VALID,0,
2010-05-07, 00:21:04,VALID,1006.71,VALID,0,VALID,101.796,VALID,0,VALID,25.3507,VALID,51,VALID,0,
2010-05-07, 00:22:04,VALID,1006.65,VALID,0,VALID,101.789,VALID,0,VALID,25.3098,VALID,51,VALID,0,
2010-05-07, 00:23:04,VALID,1006.67,VALID,0,VALID,101.811,VALID,0,VALID,25.2903,VALID,51,VALID,0,
2010-05-07, 00:24:04,VALID,1006.64,VALID,0,VALID,101.834,VALID,0,VALID,25.2922,VALID,51,VALID,0,
2010-05-07, 00:25:04,VALID,1006.66,VALID,0,VALID,101.827,VALID,0,VALID,25.2922,VALID,51,VALID,0.382813,
2010-05-07, 00:26:04,VALID,1006.64,VALID,0,VALID,101.827,VALID,0,VALID,25.2727,VALID,51,VALID,0.304688,
2010-05-07, 00:27:04,VALID,1006.61,VALID,0,VALID,101.781,VALID,0,VALID,25.2922,VALID,60,VALID,0.534766,
2010-05-07, 00:28:04,VALID,1006.63,VALID,0,VALID,101.781,VALID,0.105969,VALID,25.2903,VALID,66,VALID,0.401563,
2010-05-07, 00:29:04,VALID,1006.66,VALID,0,VALID,101.796,VALID,0,VALID,25.2727,VALID,57,VALID,0.362109,
2010-05-07, 00:30:04,VALID,1006.67,VALID,0,VALID,101.789,VALID,0,VALID,25.2513,VALID,57,VALID,0.0347656,
2010-05-07, 00:31:04,VALID,1006.7,VALID,0,VALID,101.789,VALID,0,VALID,25.2727,VALID,40,VALID,0.00078125,
2010-05-07, 00:32:04,VALID,1006.72,VALID,0,VALID,101.773,VALID,0,VALID,25.2727,VALID,336,VALID,0.135156,
2010-05-07, 00:33:04,VALID,1006.72,VALID,0,VALID,101.728,VALID,0,VALID,25.2922,VALID,336,VALID,0.305859,
2010-05-07, 00:34:04,VALID,1006.73,VALID,0,VALID,101.728,VALID,0,VALID,25.2922,VALID,336,VALID,0.00195313,
2010-05-07, 00:35:04,VALID,1006.72,VALID,0,VALID,101.705,VALID,0,VALID,25.3117,VALID,336,VALID,0,
2010-05-07, 00:36:04,VALID,1006.68,VALID,0,VALID,101.712,VALID,0,VALID,25.3312,VALID,336,VALID,0,
2010-05-07, 00:37:04,VALID,1006.69,VALID,0,VALID,101.712,VALID,0.105969,VALID,25.3312,VALID,59,VALID,0.246875,
2010-05-07, 00:38:04,VALID,1006.64,VALID,0,VALID,101.689,VALID,0,VALID,25.2903,VALID,59,VALID,0,
2010-05-07, 00:39:04,VALID,1006.61,VALID,0,VALID,101.667,VALID,0,VALID,25.3507,VALID,83,VALID,0,
2010-05-07, 00:40:04,VALID,1006.61,VALID,0,VALID,101.651,VALID,0,VALID,25.3488,VALID,83,VALID,0,
2010-05-07, 00:41:04,VALID,1006.58,VALID,0,VALID,101.659,VALID,0,VALID,25.3507,VALID,83,VALID,0,
2010-05-07, 00:42:04,VALID,1006.58,VALID,0,VALID,101.689,VALID,0,VALID,25.3507,VALID,84,VALID,0,
2010-05-07, 00:43:04,VALID,1006.59,VALID,0,VALID,101.667,VALID,0,VALID,25.3507,VALID,83,VALID,0,
2010-05-07, 00:44:04,VALID,1006.61,VALID,0,VALID,101.689,VALID,0,VALID,25.3507,VALID,19,VALID,0.636328,
2010-05-07, 00:45:04,VALID,1006.59,VALID,0,VALID,101.689,VALID,0,VALID,25.3507,VALID,27,VALID,0,
2010-05-07, 00:46:04,VALID,1006.6,VALID,0,VALID,101.651,VALID,0,VALID,25.3702,VALID,346,VALID,0.355859,
2010-05-07, 00:47:04,VALID,1006.58,VALID,0,VALID,101.659,VALID,0,VALID,25.3897,VALID,2,VALID,0,
2010-05-07, 00:48:04,VALID,1006.62,VALID,0,VALID,101.636,VALID,0,VALID,25.4092,VALID,2,VALID,0,
2010-05-07, 00:49:04,VALID,1006.59,VALID,0,VALID,101.651,VALID,0,VALID,25.3897,VALID,2,VALID,0,
2010-05-07, 00:50:04,VALID,1006.58,VALID,0,VALID,101.674,VALID,0,VALID,25.3702,VALID,7,VALID,0.00585938,
2010-05-07, 00:51:04,VALID,1006.58,VALID,0,VALID,101.697,VALID,0,VALID,25.3702,VALID,7,VALID,0,
2010-05-07, 00:52:04,VALID,1006.59,VALID,0,VALID,101.628,VALID,0.105969,VALID,25.3897,VALID,7,VALID,0.123828,
2010-05-07, 00:53:04,VALID,1006.55,VALID,0,VALID,101.636,VALID,0,VALID,25.3897,VALID,26,VALID,0.237109,
2010-05-07, 00:54:04,VALID,1006.57,VALID,0,VALID,101.644,VALID,0,VALID,25.3897,VALID,53,VALID,0.267578,
2010-05-07, 00:55:04,VALID,1006.57,VALID,0,VALID,101.659,VALID,0,VALID,25.3897,VALID,79,VALID,0.794141,
2010-05-07, 00:56:04,VALID,1006.56,VALID,0,VALID,101.644,VALID,0,VALID,25.3897,VALID,92,VALID,0.814453,
2010-05-07, 00:57:04,VALID,1006.54,VALID,0,VALID,101.667,VALID,0,VALID,25.3702,VALID,62,VALID,1.38711,
2010-05-07, 00:58:04,VALID,1006.55,VALID,0,VALID,101.689,VALID,0,VALID,25.3702,VALID,30,VALID,0.928906,
2010-05-07, 00:59:04,VALID,1006.59,VALID,0,VALID,101.651,VALID,0,VALID,25.3897,VALID,40,VALID,0.251172,
2010-05-07, 01:00:04,VALID,1006.63,VALID,0,VALID,101.659,VALID,0,VALID,25.3897,VALID,40,VALID,0.285937,
2010-05-07, 01:01:04,VALID,1006.6,VALID,0,VALID,101.674,VALID,0,VALID,25.3702,VALID,40,VALID,0.0304688,
2010-05-07, 01:02:04,VALID,1006.64,VALID,0,VALID,101.667,VALID,0,VALID,25.3683,VALID,322,VALID,0.381641,
2010-05-07, 01:03:04,VALID,1006.65,VALID,0,VALID,101.636,VALID,0,VALID,25.4287,VALID,290,VALID,0.216797,
2010-05-07, 01:04:04,VALID,1006.62,VALID,0,VALID,101.606,VALID,0,VALID,25.4482,VALID,290,VALID,0.0539063,
2010-05-07, 01:05:04,VALID,1006.67,VALID,0,VALID,101.613,VALID,0,VALID,25.4482,VALID,290,VALID,0.00273437,
2010-05-07, 01:06:04,VALID,1006.65,VALID,0,VALID,101.659,VALID,0,VALID,25.4092,VALID,346,VALID,0.0515625,
2010-05-07, 01:07:04,VALID,1006.64,VALID,0,VALID,101.667,VALID,0,VALID,25.4092,VALID,19,VALID,0.559375,
2010-05-07, 01:08:04,VALID,1006.64,VALID,0,VALID,101.667,VALID,0,VALID,25.4092,VALID,25,VALID,0.0242187,
2010-05-07, 01:09:04,VALID,1006.66,VALID,0,VALID,101.674,VALID,0,VALID,25.3877,VALID,15,VALID,0.0933594,
2010-05-07, 01:10:04,VALID,1006.64,VALID,0,VALID,101.621,VALID,0,VALID,25.4482,VALID,15,VALID,0,
2010-05-07, 01:11:04,VALID,1006.62,VALID,0,VALID,101.613,VALID,0,VALID,25.4482,VALID,15,VALID,0.192578,
2010-05-07, 01:12:04,VALID,1006.65,VALID,0,VALID,101.674,VALID,0,VALID,25.4287,VALID,342,VALID,0.230859,
2010-05-07, 01:13:04,VALID,1006.6,VALID,0,VALID,101.651,VALID,0,VALID,25.4267,VALID,342,VALID,0.00507812,
2010-05-07, 01:14:04,VALID,1006.61,VALID,0,VALID,101.644,VALID,0,VALID,25.4287,VALID,284,VALID,0.332422,
2010-05-07, 01:15:04,VALID,1006.61,VALID,0,VALID,101.636,VALID,0,VALID,25.4482,VALID,299,VALID,0.582031,
2010-05-07, 01:16:04,VALID,1006.59,VALID,0,VALID,101.674,VALID,0,VALID,25.4092,VALID,351,VALID,0.386719,
2010-05-07, 01:17:04,VALID,1006.58,VALID,0,VALID,101.651,VALID,0,VALID,25.4287,VALID,352,VALID,0.009375,
2010-05-07, 01:18:04,VALID,1006.54,VALID,0,VALID,101.659,VALID,0,VALID,25.4482,VALID,352,VALID,0,
2010-05-07, 01:19:04,VALID,1006.53,VALID,0,VALID,101.659,VALID,0,VALID,25.4287,VALID,60,VALID,0.0867188,
2010-05-07, 01:20:04,VALID,1006.51,VALID,0,VALID,101.644,VALID,0,VALID,25.4677,VALID,60,VALID,0,
2010-05-07, 01:21:04,VALID,1006.51,VALID,0,VALID,101.621,VALID,0.105969,VALID,25.5066,VALID,54,VALID,0.123047,
2010-05-07, 01:22:04,VALID,1006.48,VALID,0,VALID,101.644,VALID,0.105969,VALID,25.4267,VALID,42,VALID,0.514063,
2010-05-07, 01:23:04,VALID,1006.46,VALID,0,VALID,101.651,VALID,0,VALID,25.4482,VALID,37,VALID,0.160156,
2010-05-07, 01:24:04,VALID,1006.43,VALID,0,VALID,101.682,VALID,0,VALID,25.4287,VALID,48,VALID,0.367578,
2010-05-07, 01:25:04,VALID,1006.44,VALID,0,VALID,101.674,VALID,0,VALID,25.4287,VALID,50,VALID,0.129297,
2010-05-07, 01:26:04,VALID,1006.43,VALID,0,VALID,101.644,VALID,0.105969,VALID,25.4482,VALID,50,VALID,0.146875,
2010-05-07, 01:27:04,VALID,1006.38,VALID,0,VALID,101.682,VALID,0,VALID,25.4267,VALID,50,VALID,0,
2010-05-07, 01:28:04,VALID,1006.44,VALID,0,VALID,101.644,VALID,0,VALID,25.4482,VALID,82,VALID,0,
2010-05-07, 01:29:04,VALID,1006.42,VALID,0,VALID,101.674,VALID,0,VALID,25.4287,VALID,24,VALID,0,
2010-05-07, 01:30:04,VALID,1006.4,VALID,0,VALID,101.659,VALID,0,VALID,25.4287,VALID,24,VALID,0,
2010-05-07, 01:31:04,VALID,1006.43,VALID,0,VALID,101.667,VALID,0,VALID,25.4287,VALID,24,VALID,0,
2010-05-07, 01:32:04,VALID,1006.45,VALID,0,VALID,101.674,VALID,0,VALID,25.4092,VALID,346,VALID,0.271484,
2010-05-07, 01:33:04,VALID,1006.45,VALID,0,VALID,101.674,VALID,0,VALID,25.4287,VALID,354,VALID,0.249219,
2010-05-07, 01:34:04,VALID,1006.41,VALID,0,VALID,101.628,VALID,0,VALID,25.4267,VALID,337,VALID,0,
2010-05-07, 01:35:04,VALID,1006.43,VALID,0,VALID,101.636,VALID,0,VALID,25.4677,VALID,275,VALID,0,
2010-05-07, 01:36:04,VALID,1006.44,VALID,0,VALID,101.667,VALID,0,VALID,25.4677,VALID,328,VALID,0.252734,
2010-05-07, 01:37:04,VALID,1006.44,VALID,0,VALID,101.697,VALID,0,VALID,25.4482,VALID,276,VALID,0.347266,
2010-05-07, 01:38:04,VALID,1006.42,VALID,0,VALID,101.705,VALID,0,VALID,25.4482,VALID,281,VALID,0.684375,
2010-05-07, 01:39:04,VALID,1006.41,VALID,0,VALID,101.705,VALID,0,VALID,25.4287,VALID,21,VALID,0.332422,
2010-05-07, 01:40:04,VALID,1006.39,VALID,0,VALID,101.697,VALID,0,VALID,25.4287,VALID,43,VALID,0.128516,
2010-05-07, 01:41:04,VALID,1006.37,VALID,0,VALID,101.697,VALID,0,VALID,25.4482,VALID,41,VALID,0.0878906,
2010-05-07, 01:42:04,VALID,1006.36,VALID,0,VALID,101.728,VALID,0,VALID,25.4287,VALID,328,VALID,0.491406,
2010-05-07, 01:43:04,VALID,1006.35,VALID,0,VALID,101.72,VALID,0,VALID,25.4287,VALID,326,VALID,0.127734,
2010-05-07, 01:44:04,VALID,1006.35,VALID,0,VALID,101.72,VALID,0,VALID,25.4287,VALID,355,VALID,0.490234,
2010-05-07, 01:45:04,VALID,1006.33,VALID,0,VALID,101.735,VALID,0,VALID,25.4287,VALID,313,VALID,0.289063,
2010-05-07, 01:46:04,VALID,1006.32,VALID,0,VALID,101.743,VALID,0,VALID,25.3897,VALID,56,VALID,0.0679687,
2010-05-07, 01:47:04,VALID,1006.31,VALID,0,VALID,101.735,VALID,0,VALID,25.4287,VALID,56,VALID,0.180078,
2010-05-07, 01:48:04,VALID,1006.29,VALID,0,VALID,101.72,VALID,0,VALID,25.4092,VALID,338,VALID,0.0339844,
2010-05-07, 01:49:04,VALID,1006.26,VALID,0,VALID,101.712,VALID,0,VALID,25.4092,VALID,66,VALID,0.576563,
2010-05-07, 01:50:04,VALID,1006.24,VALID,0,VALID,101.735,VALID,0,VALID,25.3897,VALID,57,VALID,0.194922,
2010-05-07, 01:51:04,VALID,1006.18,VALID,0,VALID,101.773,VALID,0,VALID,25.3702,VALID,80,VALID,0.914453,
2010-05-07, 01:52:04,VALID,1006.18,VALID,0,VALID,101.766,VALID,0,VALID,25.3897,VALID,84,VALID,0.505078,
2010-05-07, 01:53:04,VALID,1006.19,VALID,0,VALID,101.728,VALID,0,VALID,25.4092,VALID,85,VALID,0.547656,
2010-05-07, 01:54:04,VALID,1006.14,VALID,0,VALID,101.758,VALID,0,VALID,25.3683,VALID,105,VALID,0.73125,
2010-05-07, 01:55:04,VALID,1006.15,VALID,0,VALID,101.796,VALID,0,VALID,25.3507,VALID,61,VALID,1.22422,
2010-05-07, 01:56:04,VALID,1006.13,VALID,0.5,VALID,101.819,VALID,0,VALID,25.3507,VALID,86,VALID,0.605859,
2010-05-07, 01:57:04,VALID,1006.13,VALID,0,VALID,101.819,VALID,0,VALID,25.3312,VALID,66,VALID,0.405859,
2010-05-07, 01:58:04,VALID,1006.14,VALID,0,VALID,101.819,VALID,0,VALID,25.3312,VALID,54,VALID,0.441797,
2010-05-07, 01:59:04,VALID,1006.12,VALID,0,VALID,101.789,VALID,0,VALID,25.3117,VALID,95,VALID,0.75,
2010-05-07, 02:00:04,VALID,1006.09,VALID,0,VALID,101.773,VALID,0,VALID,25.3312,VALID,18,VALID,0.217187,
2010-05-07, 02:01:04,VALID,1006.1,VALID,0,VALID,101.766,VALID,0,VALID,25.3117,VALID,43,VALID,0.504687,
2010-05-07, 02:02:04,VALID,1006.1,VALID,0,VALID,101.758,VALID,0,VALID,25.2903,VALID,43,VALID,0,
2010-05-07, 02:03:04,VALID,1006.1,VALID,0,VALID,101.766,VALID,0,VALID,25.3117,VALID,44,VALID,0.471875,
2010-05-07, 02:04:04,VALID,1006.11,VALID,0,VALID,101.735,VALID,0,VALID,25.2922,VALID,44,VALID,0.295703,
2010-05-07, 02:05:04,VALID,1006.1,VALID,0,VALID,101.743,VALID,0,VALID,25.3117,VALID,44,VALID,0.117578,
2010-05-07, 02:06:04,VALID,1006.09,VALID,0,VALID,101.72,VALID,0,VALID,25.3117,VALID,43,VALID,0.160547,
2010-05-07, 02:07:04,VALID,1006.07,VALID,0,VALID,101.758,VALID,0,VALID,25.2922,VALID,49,VALID,0.731641,
2010-05-07, 02:08:04,VALID,1006.09,VALID,0,VALID,101.735,VALID,0,VALID,25.2922,VALID,108,VALID,0.473437,
2010-05-07, 02:09:04,VALID,1006.06,VALID,0,VALID,101.712,VALID,0,VALID,25.2922,VALID,93,VALID,0.0792969,
2010-05-07, 02:10:04,VALID,1006.08,VALID,0,VALID,101.735,VALID,0,VALID,25.2922,VALID,93,VALID,0.155859,
2010-05-07, 02:11:04,VALID,1006.13,VALID,0,VALID,101.728,VALID,0,VALID,25.2727,VALID,72,VALID,0.627734,
2010-05-07, 02:12:04,VALID,1006.1,VALID,0,VALID,101.72,VALID,0,VALID,25.2532,VALID,84,VALID,0.624609,
2010-05-07, 02:13:04,VALID,1006.11,VALID,0,VALID,101.72,VALID,0,VALID,25.2337,VALID,98,VALID,0.812109,
2010-05-07, 02:14:04,VALID,1006.08,VALID,0,VALID,101.72,VALID,0,VALID,25.2727,VALID,96,VALID,0.570313,
2010-05-07, 02:15:04,VALID,1006.05,VALID,0,VALID,101.728,VALID,0,VALID,25.2727,VALID,64,VALID,0.503906,
2010-05-07, 02:16:04,VALID,1006.02,VALID,0,VALID,101.75,VALID,0,VALID,25.2337,VALID,101,VALID,0.791797,
2010-05-07, 02:17:04,VALID,1005.97,VALID,0,VALID,101.75,VALID,0,VALID,25.2337,VALID,74,VALID,0.853516,
2010-05-07, 02:18:04,VALID,1005.95,VALID,0,VALID,101.75,VALID,0,VALID,25.2532,VALID,82,VALID,0.613281,
2010-05-07, 02:19:04,VALID,1005.9,VALID,0,VALID,101.773,VALID,0,VALID,25.2532,VALID,58,VALID,0.257422,
2010-05-07, 02:20:04,VALID,1005.87,VALID,0,VALID,101.75,VALID,0,VALID,25.2532,VALID,85,VALID,0.715625,
2010-05-07, 02:21:04,VALID,1005.85,VALID,0,VALID,101.743,VALID,0,VALID,25.2337,VALID,68,VALID,0.648438,
2010-05-07, 02:22:04,VALID,1005.82,VALID,0,VALID,101.811,VALID,0,VALID,25.1538,VALID,76,VALID,1.46563,
2010-05-07, 02:23:04,VALID,1005.8,VALID,0,VALID,101.796,VALID,0,VALID,25.1947,VALID,62,VALID,0.316797,
2010-05-07, 02:24:04,VALID,1005.8,VALID,0,VALID,101.789,VALID,0,VALID,25.2142,VALID,38,VALID,0.129297,
2010-05-07, 02:25:04,VALID,1005.78,VALID,0,VALID,101.766,VALID,0,VALID,25.1928,VALID,41,VALID,0.0929687,
2010-05-07, 02:26:04,VALID,1005.77,VALID,0,VALID,101.773,VALID,0,VALID,25.2123,VALID,58,VALID,0.561328,
2010-05-07, 02:27:04,VALID,1005.76,VALID,0,VALID,101.789,VALID,0,VALID,25.1947,VALID,78,VALID,0.402344,
2010-05-07, 02:28:04,VALID,1005.76,VALID,0,VALID,101.781,VALID,0,VALID,25.2142,VALID,66,VALID,0.384766,
2010-05-07, 02:29:04,VALID,1005.8,VALID,0,VALID,101.789,VALID,0,VALID,25.2142,VALID,86,VALID,0.621875,
2010-05-07, 02:30:04,VALID,1005.78,VALID,0,VALID,101.781,VALID,0,VALID,25.1928,VALID,86,VALID,0.35625,
2010-05-07, 02:31:04,VALID,1005.81,VALID,0,VALID,101.75,VALID,0,VALID,25.2123,VALID,84,VALID,0.465234,
2010-05-07, 02:32:04,VALID,1005.85,VALID,0,VALID,101.781,VALID,0,VALID,25.1947,VALID,78,VALID,0.475,
2010-05-07, 02:33:04,VALID,1005.83,VALID,0,VALID,101.804,VALID,0,VALID,25.1947,VALID,36,VALID,0.240234,
2010-05-07, 02:34:04,VALID,1005.85,VALID,0,VALID,101.743,VALID,0.105969,VALID,25.2123,VALID,36,VALID,0,
2010-05-07, 02:35:04,VALID,1005.82,VALID,0,VALID,101.743,VALID,0,VALID,25.2123,VALID,36,VALID,0,
2010-05-07, 02:36:04,VALID,1005.8,VALID,0,VALID,101.758,VALID,0,VALID,25.2337,VALID,359,VALID,0.332812,
2010-05-07, 02:37:04,VALID,1005.78,VALID,0,VALID,101.735,VALID,0,VALID,25.2337,VALID,355,VALID,0.500391,
2010-05-07, 02:38:04,VALID,1005.76,VALID,0,VALID,101.743,VALID,0,VALID,25.1928,VALID,355,VALID,0.00195313,
2010-05-07, 02:39:04,VALID,1005.74,VALID,0,VALID,101.743,VALID,0,VALID,25.2337,VALID,355,VALID,0,
2010-05-07, 02:40:04,VALID,1005.71,VALID,0,VALID,101.743,VALID,0,VALID,25.2337,VALID,355,VALID,0,
2010-05-07, 02:41:04,VALID,1005.7,VALID,0,VALID,101.72,VALID,0,VALID,25.2318,VALID,355,VALID,0,
2010-05-07, 02:42:04,VALID,1005.69,VALID,0,VALID,101.735,VALID,0,VALID,25.2532,VALID,355,VALID,0,
2010-05-07, 02:43:04,VALID,1005.7,VALID,0,VALID,101.728,VALID,0,VALID,25.2532,VALID,355,VALID,0.00703125,
2010-05-07, 02:44:04,VALID,1005.7,VALID,0,VALID,101.781,VALID,0,VALID,25.2142,VALID,360,VALID,0.451172,
2010-05-07, 02:45:04,VALID,1005.72,VALID,0,VALID,101.773,VALID,0,VALID,25.1947,VALID,357,VALID,0,
2010-05-07, 02:46:04,VALID,1005.7,VALID,0,VALID,101.75,VALID,0,VALID,25.1928,VALID,357,VALID,0,
2010-05-07, 02:47:04,VALID,1005.69,VALID,0,VALID,101.758,VALID,0,VALID,25.2142,VALID,25,VALID,0.384766,
2010-05-07, 02:48:04,VALID,1005.7,VALID,0,VALID,101.758,VALID,0,VALID,25.1947,VALID,31,VALID,0.0570313,
2010-05-07, 02:49:04,VALID,1005.73,VALID,0,VALID,101.728,VALID,0,VALID,25.2142,VALID,31,VALID,0.0132813,
2010-05-07, 02:50:04,VALID,1005.72,VALID,0,VALID,101.766,VALID,0,VALID,25.1733,VALID,34,VALID,0.35625,
2010-05-07, 02:51:04,VALID,1005.71,VALID,0,VALID,101.773,VALID,0,VALID,25.1752,VALID,77,VALID,0.232422,
2010-05-07, 02:52:04,VALID,1005.75,VALID,0,VALID,101.811,VALID,0,VALID,25.1557,VALID,31,VALID,0.455078,
2010-05-07, 02:53:04,VALID,1005.75,VALID,0,VALID,101.781,VALID,0,VALID,25.1752,VALID,87,VALID,0.535547,
2010-05-07, 02:54:04,VALID,1005.8,VALID,0,VALID,101.781,VALID,0,VALID,25.1343,VALID,87,VALID,0.399609,
2010-05-07, 02:55:04,VALID,1005.8,VALID,0,VALID,101.796,VALID,0.105969,VALID,25.1538,VALID,88,VALID,0.833203,
2010-05-07, 02:56:04,VALID,1005.86,VALID,0,VALID,101.75,VALID,0,VALID,25.1752,VALID,62,VALID,0.317578,
2010-05-07, 02:57:04,VALID,1005.86,VALID,0,VALID,101.789,VALID,0,VALID,25.1947,VALID,62,VALID,0,
2010-05-07, 02:58:04,VALID,1005.88,VALID,0,VALID,101.773,VALID,0,VALID,25.1538,VALID,62,VALID,0,
2010-05-07, 02:59:04,VALID,1005.92,VALID,0,VALID,101.773,VALID,0,VALID,25.1947,VALID,61,VALID,0.149609,
2010-05-07, 03:00:04,VALID,1005.91,VALID,0,VALID,101.796,VALID,0,VALID,25.1343,VALID,342,VALID,0,
2010-05-07, 03:01:04,VALID,1005.93,VALID,0,VALID,101.766,VALID,0,VALID,25.1557,VALID,342,VALID,0,
2010-05-07, 03:02:04,VALID,1005.95,VALID,0,VALID,101.766,VALID,0,VALID,25.1947,VALID,342,VALID,0,
2010-05-07, 03:03:04,VALID,1005.93,VALID,0,VALID,101.735,VALID,0,VALID,25.1947,VALID,342,VALID,0,
2010-05-07, 03:04:04,VALID,1005.91,VALID,0,VALID,101.735,VALID,0,VALID,25.1947,VALID,340,VALID,0.0539063,
2010-05-07, 03:05:04,VALID,1005.91,VALID,0,VALID,101.773,VALID,0,VALID,25.1557,VALID,344,VALID,0.0890625,
2010-05-07, 03:06:04,VALID,1005.97,VALID,0,VALID,101.781,VALID,0,VALID,25.1557,VALID,344,VALID,0,
2010-05-07, 03:07:04,VALID,1005.95,VALID,0,VALID,101.796,VALID,0,VALID,25.1362,VALID,345,VALID,0.0296875,
2010-05-07, 03:08:04,VALID,1005.95,VALID,0,VALID,101.766,VALID,0,VALID,25.1557,VALID,14,VALID,0.167187,
2010-05-07, 03:09:04,VALID,1005.96,VALID,0,VALID,101.773,VALID,0,VALID,25.1557,VALID,88,VALID,0.409766,
2010-05-07, 03:10:04,VALID,1005.96,VALID,0,VALID,101.804,VALID,0,VALID,25.1148,VALID,90,VALID,0.555078,
2010-05-07, 03:11:04,VALID,1005.98,VALID,0,VALID,101.819,VALID,0,VALID,25.1167,VALID,90,VALID,0,
2010-05-07, 03:12:04,VALID,1005.98,VALID,0,VALID,101.811,VALID,0,VALID,25.1167,VALID,90,VALID,0.00117188,
2010-05-07, 03:13:04,VALID,1005.96,VALID,0,VALID,101.804,VALID,0,VALID,25.1167,VALID,90,VALID,0,
2010-05-07, 03:14:04,VALID,1005.96,VALID,0,VALID,101.811,VALID,0,VALID,25.1362,VALID,87,VALID,0.167187,
2010-05-07, 03:15:04,VALID,1005.94,VALID,0,VALID,101.789,VALID,0,VALID,25.1362,VALID,87,VALID,0.00078125,
2010-05-07, 03:16:04,VALID,1005.91,VALID,0,VALID,101.804,VALID,0,VALID,25.1362,VALID,87,VALID,0.273438,
2010-05-07, 03:17:04,VALID,1005.92,VALID,0,VALID,101.811,VALID,0,VALID,25.0973,VALID,87,VALID,0.298438,
2010-05-07, 03:18:04,VALID,1005.89,VALID,0,VALID,101.834,VALID,0,VALID,25.0973,VALID,86,VALID,0.658594,
2010-05-07, 03:19:04,VALID,1005.86,VALID,0,VALID,101.842,VALID,0,VALID,25.1167,VALID,85,VALID,0.277344,
2010-05-07, 03:20:04,VALID,1005.85,VALID,0,VALID,101.85,VALID,0,VALID,25.1167,VALID,72,VALID,0.672266,
2010-05-07, 03:21:04,VALID,1005.84,VALID,0,VALID,101.834,VALID,0,VALID,25.1148,VALID,81,VALID,0.527344,
2010-05-07, 03:22:04,VALID,1005.82,VALID,0,VALID,101.827,VALID,0,VALID,25.1362,VALID,84,VALID,0.419922,
2010-05-07, 03:23:04,VALID,1005.81,VALID,0,VALID,101.796,VALID,0,VALID,25.1343,VALID,84,VALID,0.0148437,
2010-05-07, 03:24:04,VALID,1005.82,VALID,0,VALID,101.766,VALID,0,VALID,25.1752,VALID,84,VALID,0,
2010-05-07, 03:25:04,VALID,1005.83,VALID,0,VALID,101.804,VALID,0,VALID,25.1538,VALID,84,VALID,0,
2010-05-07, 03:26:04,VALID,1005.83,VALID,0,VALID,101.796,VALID,0,VALID,25.1557,VALID,84,VALID,0,
2010-05-07, 03:27:04,VALID,1005.82,VALID,0,VALID,101.796,VALID,0,VALID,25.1557,VALID,11,VALID,0.160547,
2010-05-07, 03:28:04,VALID,1005.84,VALID,0,VALID,101.781,VALID,0,VALID,25.1752,VALID,356,VALID,0.460938,
2010-05-07, 03:29:04,VALID,1005.84,VALID,0,VALID,101.796,VALID,0,VALID,25.1557,VALID,335,VALID,0.630859,
2010-05-07, 03:30:04,VALID,1005.84,VALID,0,VALID,101.789,VALID,0.105969,VALID,25.1752,VALID,329,VALID,0.394531,
2010-05-07, 03:31:04,VALID,1005.82,VALID,0,VALID,101.789,VALID,0,VALID,25.1557,VALID,313,VALID,0.366406,
2010-05-07, 03:32:04,VALID,1005.77,VALID,0,VALID,101.819,VALID,0,VALID,25.1538,VALID,314,VALID,0.440625,
2010-05-07, 03:33:04,VALID,1005.72,VALID,0,VALID,101.789,VALID,0,VALID,25.1538,VALID,331,VALID,0.186328,
2010-05-07, 03:34:04,VALID,1005.72,VALID,0.5,VALID,101.789,VALID,0,VALID,25.1538,VALID,358,VALID,0.0078125,
2010-05-07, 03:35:04,VALID,1005.7,VALID,0,VALID,101.804,VALID,0,VALID,25.1343,VALID,350,VALID,0.414063,
2010-05-07, 03:36:04,VALID,1005.73,VALID,0,VALID,101.781,VALID,0,VALID,25.1343,VALID,320,VALID,0.64375,
2010-05-07, 03:37:04,VALID,1005.7,VALID,0,VALID,101.804,VALID,0,VALID,25.1538,VALID,285,VALID,0.576563,
2010-05-07, 03:38:04,VALID,1005.67,VALID,0,VALID,101.773,VALID,0,VALID,25.1538,VALID,328,VALID,0.274609,
2010-05-07, 03:39:04,VALID,1005.66,VALID,0,VALID,101.758,VALID,0,VALID,25.1947,VALID,328,VALID,0.0304688,
2010-05-07, 03:40:04,VALID,1005.62,VALID,0,VALID,101.766,VALID,0,VALID,25.1947,VALID,328,VALID,0,
2010-05-07, 03:41:04,VALID,1005.64,VALID,0,VALID,101.773,VALID,0,VALID,25.1947,VALID,328,VALID,0,
2010-05-07, 03:42:04,VALID,1005.63,VALID,0,VALID,101.758,VALID,0,VALID,25.1928,VALID,328,VALID,0,
2010-05-07, 03:43:04,VALID,1005.63,VALID,0,VALID,101.773,VALID,0,VALID,25.2142,VALID,319,VALID,0,
2010-05-07, 03:44:04,VALID,1005.58,VALID,0,VALID,101.796,VALID,0,VALID,25.1733,VALID,317,VALID,0.568359,
2010-05-07, 03:45:04,VALID,1005.57,VALID,0,VALID,101.781,VALID,0,VALID,25.1752,VALID,319,VALID,0.904297,
2010-05-07, 03:46:04,VALID,1005.61,VALID,0,VALID,101.789,VALID,0,VALID,25.1947,VALID,304,VALID,0.615234,
2010-05-07, 03:47:04,VALID,1005.62,VALID,0,VALID,101.804,VALID,0.105969,VALID,25.1752,VALID,304,VALID,0.682422,
2010-05-07, 03:48:04,VALID,1005.62,VALID,0,VALID,101.834,VALID,0,VALID,25.1752,VALID,331,VALID,0.0683594,